Regional Weather Roundup
Issued by NWS State College, PA

Home | Current Version | Previous Version | Text Only | Print | Product List | Glossary On
Versions: 1 2 3 4 5 6 7 8 9 10 11 12 13 14 15 16 17 18 19 20 21 22 23 24 25 26 27 28 29 30 31 32 33 34 35 36 37 38 39 40 41 42 43 44 45 46 47 48 49 50
000
ASUS41 KCTP 071210
RWRCTP

REGIONAL WEATHER ROUNDUP
NATIONAL WEATHER SERVICE STATE COLLEGE PA
800 AM EDT TUE JUL 07 2015

Note: "fair" indicates few or no clouds below 12,000 feet with no
significant weather and/or obstructions to visibility.

* = STATION THAT DOES NOT REPORT PRECIPITATION /E.G. RAIN...SNOW...ETC/
    THUNDER OR FOG.

PAZ002>004-007>009-013>016-020>023-029>032-071300-
WESTERN PENNSYLVANIA

CITY           SKY/WX    TMP DP  RH WIND       PRES   REMARKS
ERIE           MOSUNNY   74  64  71 S14G21    29.95S
MEADVILLE      MOSUNNY   68  64  87 S5        30.01S FOG
FRANKLIN*      SUNNY     66  63  88 S9        30.05R
NEW CASTLE     FAIR      71  68  90 CALM      30.03R
BEAVER COUNTY  SUNNY     68  66  94 SW5       30.04R
BUTLER*        SUNNY     68  66  94 S8        30.07R
PITTSBURGH INT MOSUNNY   70  66  87 S6        30.04S
PITTSBURGH     SUNNY     68  64  87 S9        30.05R FOG
INDIANA*       MOSUNNY   70  68  94 SW7       30.10S FOG
LATROBE        MOSUNNY   72  70  94 SW9       30.07S
WASHINGTON CO* NOT AVBL
$$

PAZ004>006-010>012-017>019-024>028-033>037-041-042-045-046-049>053-071300-
CENTRAL PENNSYLVANIA

CITY           SKY/WX    TMP DP  RH WIND       PRES   REMARKS
BRADFORD       PTSUNNY   69  64  84 SW7       30.06S
DUBOIS         CLOUDY    69  65  86 SW5       30.06S FOG
CLEARFIELD     CLOUDY    69  66  90 SW7       30.07R FOG
JOHNSTOWN      CLOUDY    67  64  90 SW7       30.11R FOG
ALTOONA        PTSUNNY   69  66  90 SW3       30.09S FOG
STATE COLLEGE  MOSUNNY   70  68  94 SW5       30.06S
WILLIAMSPORT   CLOUDY    73  70  90 SW3       30.01R
SELINSGROVE    PTSUNNY   73  71  93 S3        30.03F FOG
FT INDIANTOWN  MOSUNNY   73  72  94 SW3       30.04S
CAPITAL CITY   PTSUNNY   74  70  87 SW5       30.05R
HARRISBURG     CLOUDY    74  70  87 CALM      30.04R
YORK           CLOUDY    73  70  90 VRB3      30.06R
$$

PAZ038>040-043-044-047-048-054-055-060>062-067>071-071300-
EASTERN PENNSYLVANIA

CITY           SKY/WX    TMP DP  RH WIND       PRES   REMARKS
SCRANTON       PTSUNNY   76  72  87 CALM      30.04S
MOUNT POCONO   LGT RAIN  70  32  24 SW7       30.09S
ALLENTOWN      CLOUDY    76  71  85 SW7       30.04R
QUAKERTOWN*    CLOUDY    73  72  94 SW6       30.06R
READING        CLOUDY    75  71  87 CALM      30.03R FOG
LANCASTER      CLOUDY    73  71  93 W5        30.05R
COATESVILLE    CLOUDY    73  73 100 CALM      30.07R FOG
POTTSTOWN      CLOUDY    73  71  93 CALM      30.06R
BLUE BELL      CLOUDY    77  72  83 SW3       30.04R
DOYLESTOWN     CLOUDY    74  70  87 SW9       30.04S
WILLOW GROVE   NOT AVBL
NORTH PHILA    PTSUNNY   79  71  76 VRB5      30.05S
PHILADELPHIA   MOSUNNY   78  72  81 SW8       30.05R
$$



USA.gov is the U.S. government's official web portal to all federal, state and local government web resources and services.